Rechercher aéroport 
image banner adimage banner ad
image banner ad

FYKM - Katima Mulilo

Situé à Katima Mulilo, Namibia

ICAO - FYKM, IATA - MPA

Données fournies par Airmate  

Information générale

Coordonnées: S17°38'3" E24°10'36"
Élévation : 3144 feet MSL.
 
Voir autres Aéroports à Caprivi

Données opérationnelles

Accessible au public
Heure actuelle UTC:
Heure actuelle locale:
Météo
METAR: FYKM 040800Z 06004KT 9999 BKN015 25/20 Q1017
TAF: TAF AMD FYKM 040721Z 0407/0415 00000KT 9999 -RA BKN020 BECMG 0407/0409 05006KT NSW BKN015 PROB30 TEMPO 0410/0415 -TSRA FEW030CB BKN035
Voir NOTAMs / SUP AIP / TFR affectant cet aéroport [VIEW]
Fréquences de communication: [VIEW]

Pistes:

Identifiant RWYQFULongueur (ft)Largeur (ft)SurfaceLDA (ft)
0980°752069ASP
27260°752069

Coordonnées de l'aéroport

Adresse: Katima Mulilo Namibia

Vue satellite de FYKM